Regional Weather Roundup
Issued by NWS Newport/Morehead, NC

Current Version | Previous Version | Text Only | Print | Product List | Glossary Off
Versions: 1 2 3 4 5 6 7 8 9 10 11 12 13 14 15 16 17 18 19 20 21 22 23 24 25 26 27 28 29 30 31 32 33 34 35 36 37 38 39 40 41 42 43 44 45 46 47 48 49 50
000 ASUS42 KMHX 191110 RWRMHX WEATHER ROUNDUP FOR EASTERN NORTH CAROLINA NATIONAL WEATHER SERVICE NEWPORT/MOREHEAD CITY NC 600 AM EST FRI DEC 19 2014 NOTE: "FAIR" INDICATES FEW OR NO CLOUDS BELOW 12,000 FEET WITH NO SIGNIFICANT WEATHER AND/OR OBSTRUCTIONS TO VISIBILITY NCZ015>017-031-032-045>047-102-103-191200- NORTH COAST CITY SKY/WX TMP DP RH WIND PRES REMARKS EDENTON N/A 31 29 93 CALM 30.11R ELIZABETH CITY CLEAR 39 31 72 N6 30.11R KITTY HAWK SUNNY 39 34 81 CALM 30.08S MANTEO CLEAR 34 33 96 N5 30.10R $$ NCZ045>047-081-094-103-104-191200- CENTRAL COAST CITY SKY/WX TMP DP RH WIND PRES REMARKS FRISCO CLOUDY 44 38 79 NW5 30.09R SWANQUARTER N/A 36 N/A N/A N2 30.06S $$ NCZ095-097-098-100-101-191200- SOUTHERN COAST CITY SKY/WX TMP DP RH WIND PRES REMARKS BEAUFORT CLOUDY 43 37 79 N9 30.11R CEDAR ISLAND N/A 41 N/A N/A W3 30.12S JACKSONVILLE MOCLDY 33 31 92 CALM 30.11R PINEY ISLAND SUNNY 42 34 73 W7 30.10R WILMINGTON PTCLDY 34 32 92 NE3 30.12R $$ NCZ011>013-027>030-043-044-078>080-089-090>093-098-191200- COASTAL PLAIN CITY SKY/WX TMP DP RH WIND PRES REMARKS AHOSKIE CLEAR 27 26 96 CALM 30.13R CLINTON CLOUDY 38 37 97 CALM 30.13R ELIZABETHTOWN PTCLDY 35 32 90 CALM 30.12R GOLDSBORO CLOUDY 37 37 98 CALM 30.11R GREENVILLE CLEAR 32 32 100 CALM 30.13R FOG HAVELOCK CLOUDY 38 33 82 CALM 30.12R KENANSVILLE MOCLDY 35 35 99 CALM 30.13R KINSTON NOT AVBL NEW BERN PTCLDY 36 32 85 CALM 30.12R RICHLANDS CLOUDY 36 30 80 CALM 30.12R ROCKY MOUNT CLOUDY 35 33 92 CALM 30.12R WASHINGTON CLEAR 32 32 97 CALM 30.11S WHITEVILLE PTCLDY 32 32 97 CALM 30.11R $$ AMZ130-135-150-152-154-156-158-170-250-252-270-ANZ085-086-088-633-658-670-191200- MARINE OBSERVATIONS STATION/POSITION TIME TEMP WIND PRES WAVE SWELL AIR SEA DIR/SP/G HT/PER HT/PER (UTC) (F) (DEG/KT/KT) (MB) (FT/S) (FT/S) CHESAPEAKE LIGHT 1000 39 330/ 11/ 13 1019.6 64 E VA BEACH 1100 44 55 330/ 12/ 16 1018.0 3/ 5 2/ 6 DUCK 1100 41 47 330/ 8/ 9 1018.1 2 E DUCK 1100 48 N/A 2/ 5 10 NE DUCK 1100 51 N/A 2/ 6 OREGON INLET 1100 40 50 330/ 4/ 5 1018.8 13E OREGON INLT 1100 53 N/A 3/11 2/11 HATTERAS CG 1100 46 53 300/ 8/ 9 1019.0 DIAMOND BUOY 1100 47 1019.0 2/ 9 17 S OCRACOKE NOT AVBL CAPE LOOKOUT 1000 48 330/ 6/ 7 1018.4 BEAUFORT LAB 1100 45 53 340/ 4/ 6 1018.1 30 SE NEW RIVER 1100 53 62 340/ 10/ 12 1019.3 2/ 9 2/ 9 5 SE WRIGHTSVLE NOT AVBL 225 S CAPE HAT 1005 69 72 300/ 8/ 12 1016.9 3/11 3/11 41 SE CHARLESTON 1100 60 72 320/ 6/ 8 1018.1 1/10 2/10 $$

USA.gov is the U.S. government's official web portal to all federal, state and local government web resources and services.